EW1448 Weather Reports


time (UTC)temp
C
wind
direction
speed
KPH
gust
KPH
rain 1hr
cm
rain 24hr
cm
rain mn
cm
humidity
%
barometer
mb
20260507041606 20 263 1.6 11.3 0.00 0.00 0.00 28 1016.4
20260507001546 24 141 9.7 16.1 0.00 0.00 0.00 21 1013.8
20260507000108 26 119 11.3 20.9 0.00 0.00 0.00 19 1013.5
20260506234525 27 168 6.4 12.9 0.00 0.00 0.00 18 1013.3
20260506220042 27 135 3.2 14.5 0.00 0.00 0.00 21 1014.4
20260506214543 26 117 4.8 12.9 0.00 0.00 0.00 21 1014.6
20260506213041 26 25 4.8 9.7 0.00 0.00 0.00 19 1015.0
20260506203035 25 120 1.6 9.7 0.00 0.00 0.00 23 1015.7
20260506194545 23 210 3.2 11.3 0.00 0.00 0.00 24 1016.2
20260506193031 23 65 3.2 8.0 0.00 0.00 0.00 24 1016.4
20260506191541 22 298 1.6 6.4 0.00 0.00 0.00 26 1016.6
20260506190024 22 105 1.6 9.7 0.00 0.00 0.00 27 1016.9
20260506184536 21 10 4.8 9.7 0.00 0.00 0.00 27 1017.0
20260506183038 21 280 1.6 9.7 0.00 0.00 0.00 28 1017.3
20260506181543 20 186 4.8 9.7 0.00 0.00 0.00 30 1017.4
20260506180031 20 351 3.2 11.3 0.00 0.00 0.00 29 1017.4
20260506174533 20 120 3.2 8.0 0.00 0.00 0.00 30 1017.6
20260506173034 20 229 3.2 11.3 0.00 0.00 0.00 29 1017.7
20260506171524 19 114 1.6 9.7 0.00 0.00 0.00 32 1017.7
20260506170049 18 20 1.6 9.7 0.00 0.00 0.00 32 1017.8
20260506164522 18 129 0.0 9.7 0.00 0.00 0.00 33 1017.8
20260506163038 17 78 4.8 9.7 0.00 0.00 0.00 35 1017.9
20260506160030 16 41 1.6 4.8 0.00 0.00 0.00 37 1018.0
20260506154532 16 194 1.6 4.8 0.00 0.00 0.00 36 1017.9
20260506153040 15 120 0.0 3.2 0.00 0.00 0.00 40 1018.0
20260506151602 14 77 1.6 6.4 0.00 0.00 0.00 39 1017.9
20260506143032 12 349 0.0 4.8 0.00 0.00 0.00 43 1017.7
20260506141541 12 350 1.6 3.2 0.00 0.00 0.00 43 1017.7
20260506140036 12 98 0.0 1.6 0.00 0.00 0.00 43 1017.6
20260506134526 11 224 0.0 1.6 0.00 0.00 0.00 46 1017.6
20260506133033 9 220 0.0 0.0 0.00 0.00 0.00 52 1017.4
20260506131527 7 220 0.0 0.0 0.00 0.00 0.00 59 1017.3